Temperature
14 14 14 14 14 14 14 15 15 15 15 14 14 14 14 14 14 14 14 14 14 15 15 15 15 15 15 15 15 15 15 15 16 16 16 16 16 16
13 13 14 14 14 14 14 14 15 15 14 14 13 13 13 13 13 13 13 14 14 14 14 14 14 14 14 14 14 14 14 14 15 15 15 15 15 15
13 13 13 13 14 14 14 14 14 14 14 13 13 13 13 12 13 13 13 13 14 14 13 13 13 13 13 13 13 13 14 14 14 14 14 14 14 14
13 13 13 13 13 14 14 14 14 14 13 13 12 12 12 12 12 12 12 12 12 12 12 12 12 12 12 13 13 13 13 14 14 14 14 14 14 14
12 12 12 13 13 13 13 13 13 13 13 13 12 11 11 11 12 12 11 11 11 12 12 12 12 12 12 12 12 13 13 13 13 13 13 13 13 13
12 12 12 12 12 12 13 13 13 12 12 12 11 11 11 11 12 12 12 11 11 11 11 11 11 11 11 12 12 12 12 12 12 13 13 13 13 13
12 12 12 12 12 12 12 12 12 11 11 11 11 11 12 12 12 13 12 12 11 11 11 11 11 10 10 11 11 11 11 11 11 12 12 12 12 12
12 12 12 12 12 12 12 11 11 11 11 12 12 12 12 12 13 13 13 13 12 11 12 11 11 10 10 10 10 10 10 10 10 10 11 11 11 11
11 11 12 12 12 12 11 11 11 11 11 12 12 12 12 12 12 13 12 13 12 11 12 11 11 10 9 9 9 9 9 9 9 10 10 10 10 10
11 11 11 11 11 11 11 11 11 11 11 12 12 11 11 11 11 11 11 11 11 11 11 12 11 10 9 9 9 9 9 9 9 9 9 9 9 9
11 11 11 11 11 11 11 11 11 11 11 11 12 11 11 11 11 11 11 12 12 11 11 11 11 10 9 9 8 8 8 8 8 8 8 8 8 8
11 11 11 11 11 11 11 11 11 11 11 11 11 10 10 10 10 11 11 12 12 11 10 11 11 11 10 9 9 8 8 8 7 7 7 7 7 7
11 11 11 11 11 11 11 11 11 11 10 10 10 10 9 9 10 10 10 11 12 11 10 10 11 11 11 10 9 8 8 8 7 7 7 6 6 6
12 11 11 11 11 11 11 11 11 10 10 10 10 10 10 9 9 9 9 9 9 9 8 9 10 10 11 11 10 9 8 7 7 7 7 6 6 5
11 11 11 10 10 10 10 10 10 10 10 10 10 9 9 8 8 8 8 8 8 8 8 8 9 9 10 10 9 9 9 8 7 7 6 7 6 6
11 11 10 10 10 9 9 9 9 10 10 10 9 9 8 8 8 9 9 9 8 8 7 7 7 8 9 8 9 9 8 8 7 7 6 6 6 6
10 10 9 9 9 9 9 9 9 9 9 9 9 8 9 9 9 9 9 9 9 9 8 7 7 7 7 8 9 8 8 8 7 6 6 7 6 6
10 10 10 10 10 10 9 9 9 9 9 9 9 9 9 9 9 9 9 10 9 9 9 8 8 8 8 7 8 7 8 7 7 6 6 6 7 6
10 11 11 10 10 10 10 10 9 9 9 9 9 9 9 9 9 9 9 9 9 9 9 8 9 9 10 10 8 7 7 6 6 7 6 6 6 6
11 11 11 11 11 11 10 10 10 9 9 9 9 9 9 9 9 9 9 9 9 9 9 9 8 8 9 9 8 8 7 6 6 6 6 6 6 5
11 11 11 11 11 11 11 10 10 9 9 9 9 9 9 9 10 10 9 8 9 9 9 9 8 7 7 7 9 9 8 6 5 5 5 5 5 5
11 11 11 11 11 11 10 10 10 9 9 9 9 9 9 10 9 9 9 9 9 9 9 8 7 7 8 8 9 9 8 7 6 6 5 5 4 4
11 11 11 11 11 10 10 10 10 10 10 10 10 9 10 10 10 10 9 9 9 9 9 9 8 8 8 8 8 8 8 7 7 7 6 6 5 4
Wind_Speed
13 13 12 12 12 12 12 12 11 9 8 6 3 5 6 8 7 8 8 9 8 10 11 13 14 14 13 13 14 14 14 14 14 13 12 9 4 3
10 12 12 11 11 11 11 11 11 9 5 3 4 6 7 7 9 10 10 12 11 12 13 14 15 15 15 15 15 16 15 15 14 13 13 12 10 8
9 9 10 10 9 9 9 9 9 8 6 5 6 7 8 8 7 7 8 10 12 15 16 17 16 16 16 16 16 16 15 15 14 14 13 12 11 9
8 7 8 7 7 7 7 8 7 8 10 12 8 6 7 8 8 8 8 11 12 16 17 17 17 17 16 16 16 16 16 15 14 14 13 12 11 9
5 5 5 4 2 1 3 4 5 8 11 13 10 7 7 9 9 10 11 10 12 15 16 16 16 15 15 14 13 13 13 13 13 13 12 11 10 9
4 4 4 4 4 5 6 8 9 11 11 11 10 9 8 10 10 11 10 9 10 11 11 13 15 15 15 14 14 13 13 13 14 13 13 12 11 10
3 3 5 7 9 8 8 9 9 9 8 8 9 9 9 10 10 10 11 10 9 9 10 9 10 10 12 15 16 15 16 16 16 16 15 14 13 12
3 4 6 8 12 13 13 11 8 7 6 6 7 10 10 9 8 9 10 9 8 6 7 7 7 8 9 12 13 14 16 16 17 17 17 17 16 15
3 3 6 9 10 11 13 12 10 7 2 4 10 10 9 8 7 7 5 6 7 6 6 7 7 8 9 12 12 13 14 15 16 17 18 17 16 13
5 6 7 9 9 11 12 11 9 8 6 7 9 9 9 7 5 7 8 8 7 4 3 5 6 7 8 10 11 11 12 12 13 14 16 17 16 13
6 6 7 9 8 9 11 11 11 9 13 16 15 13 12 9 4 5 7 8 8 6 3 4 5 6 7 7 10 11 11 10 10 11 13 16 18 15
7 6 5 8 8 5 11 12 11 10 11 12 11 10 9 6 2 1 4 6 8 7 3 2 3 4 6 5 5 5 6 9 10 10 10 11 14 12
10 8 7 10 8 3 6 10 12 12 11 11 9 8 7 6 5 5 5 3 4 7 4 1 2 2 3 5 4 3 4 5 3 4 6 6 4 8
9 9 9 12 10 7 7 12 12 11 10 9 8 7 7 7 7 9 10 11 10 8 5 2 2 1 1 2 3 2 3 5 6 7 7 2 1 1
9 14 15 15 14 11 13 11 9 8 8 8 7 7 8 8 8 8 9 8 8 7 5 2 3 3 2 3 3 3 3 5 6 8 9 8 7 8
13 15 14 11 10 12 11 8 7 6 7 7 8 8 8 8 7 7 7 7 8 8 8 6 5 3 4 4 3 3 4 5 6 8 9 8 7 8
15 13 12 12 12 11 10 8 7 7 7 8 8 8 8 7 7 6 5 6 6 7 8 7 6 5 5 4 2 3 4 5 6 7 9 8 8 8
16 14 13 13 12 12 11 10 9 9 8 8 8 8 8 8 7 7 6 6 6 6 6 4 4 5 6 3 3 4 5 6 7 7 9 10 9 9
15 14 13 12 12 11 11 10 9 9 8 8 8 8 8 8 7 7 6 6 6 6 5 3 1 1 2 2 4 1 4 6 8 8 9 10 10 11
14 14 13 13 12 12 11 10 10 10 9 8 9 8 8 8 7 7 6 6 5 5 4 4 2 2 3 4 2 1 5 4 7 8 9 9 10 9
14 13 14 13 13 12 11 10 11 10 10 9 9 8 8 7 7 6 6 5 2 4 3 4 4 0 3 4 4 1 2 6 3 5 8 9 11 11
15 13 13 13 13 12 11 11 11 11 11 9 9 8 7 7 7 6 7 7 5 4 4 4 4 4 3 3 4 4 4 3 7 13 9 5 8 10
15 13 13 14 14 13 12 12 13 11 11 10 9 9 8 7 6 6 6 6 5 5 4 3 4 3 2 3 4 5 5 7 7 6 4 12 13 13
Wind_Direction
271 265 260 257 251 245 240 235 232 224 207 176 141 121 121 113 115 99 91 80 88 97 98 95 90 82 75 71 68 66 64 61 58 55 54 58 85 168
277 273 266 260 253 245 236 230 226 224 204 151 132 127 119 115 108 101 93 84 80 96 102 99 92 87 82 77 73 70 67 64 62 61 59 59 59 59
288 282 277 269 257 247 238 229 221 212 177 122 114 121 123 124 122 122 113 94 85 92 101 100 96 91 87 82 78 74 71 68 65 63 60 57 54 50
304 303 297 284 262 248 233 222 209 192 159 137 131 135 137 134 133 130 113 100 97 93 97 98 95 91 86 82 78 75 72 70 66 62 58 52 46 39
330 331 328 317 287 223 179 159 147 140 136 135 139 142 145 144 139 122 111 113 108 110 106 103 100 97 92 87 83 79 75 71 66 59 51 42 32 23
353 2 13 27 60 89 96 103 111 116 122 130 136 144 149 158 147 135 127 122 120 119 110 115 117 107 94 85 80 77 73 67 60 51 40 30 19 10
29 37 53 66 72 85 97 100 104 109 118 132 143 150 157 165 154 139 126 124 121 128 134 137 135 117 101 90 78 73 71 67 60 52 44 35 27 19
83 79 94 94 93 93 94 91 96 120 139 152 155 148 148 148 137 141 145 141 129 127 127 118 112 99 88 84 78 76 71 63 55 47 40 36 35 35
117 109 104 109 117 117 108 100 85 66 96 134 126 126 126 125 140 144 131 128 114 135 147 129 124 112 103 93 89 79 69 60 52 44 35 28 22 25
135 123 121 125 125 132 132 121 101 63 58 97 106 106 105 100 100 108 117 119 122 125 168 142 141 133 123 111 106 93 81 71 60 50 37 22 7 354
153 138 137 131 126 136 134 127 114 93 70 74 75 79 66 51 35 158 166 172 149 136 148 143 145 150 138 131 133 134 120 106 90 72 51 27 3 347
158 142 114 129 142 163 153 145 134 126 120 110 102 108 103 97 32 296 205 185 152 137 116 157 145 170 147 127 118 139 143 142 137 112 82 47 10 2
172 165 134 126 132 130 168 152 141 139 135 133 130 128 124 119 115 85 34 63 136 118 115 189 148 173 160 143 124 82 40 29 46 118 116 100 36 1
170 150 129 129 122 116 119 122 137 152 148 148 145 140 132 117 97 84 68 62 60 74 52 5 92 55 152 139 111 91 73 40 15 2 354 354 311 308
141 116 127 131 126 113 119 135 162 162 154 153 144 133 120 114 114 107 97 97 94 87 87 62 109 105 70 81 71 35 21 31 18 1 347 343 353 353
125 123 131 140 127 119 142 165 175 157 157 145 134 131 133 146 151 147 150 153 133 115 103 91 76 77 92 79 55 42 14 3 2 0 340 334 347 354
145 147 151 151 150 154 160 159 152 150 150 141 142 148 151 149 141 132 134 134 126 125 127 125 113 88 60 16 38 20 355 351 357 352 328 337 343 353
159 162 162 163 161 160 160 158 159 156 152 152 154 155 152 149 146 147 148 132 123 114 109 117 151 168 172 134 31 344 340 349 345 342 336 338 340 351
176 170 168 167 165 164 162 161 158 152 155 158 153 150 149 151 152 151 145 136 127 117 109 105 86 306 263 171 142 77 341 339 334 338 342 339 338 345
192 175 173 170 169 168 165 160 153 155 166 162 153 151 154 155 154 158 155 148 139 134 126 116 85 33 3 357 336 207 173 330 341 337 336 334 336 330
201 180 176 174 173 171 166 160 157 162 167 166 158 160 162 161 158 159 138 111 175 150 128 103 79 301 273 269 276 316 144 176 226 300 322 332 338 335
199 184 179 177 175 173 169 167 164 164 168 176 165 168 171 168 159 162 155 167 178 150 130 120 151 216 247 305 322 328 326 309 232 223 244 282 336 337
195 187 180 179 178 177 177 178 177 173 177 181 173 175 178 177 174 169 167 176 169 161 175 175 181 207 257 290 309 321 333 321 319 315 281 202 219 239
Height
1448 1446 1444 1443 1443 1444 1445 1447 1449 1450 1452 1454 1456 1458 1460 1462 1464 1465 1466 1467 1468 1469 1469 1470 1471 1473 1474 1474 1475 1476 1477 1478 1479 1481 1482 1484 1487 1489
1443 1440 1439 1438 1437 1438 1439 1440 1442 1445 1448 1450 1452 1455 1458 1460 1462 1464 1465 1466 1467 1468 1469 1470 1471 1472 1473 1474 1474 1474 1475 1476 1477 1478 1479 1481 1482 1484
1438 1436 1434 1433 1432 1432 1433 1434 1437 1440 1444 1446 1450 1454 1457 1459 1462 1464 1465 1465 1466 1467 1468 1470 1471 1472 1473 1474 1474 1475 1475 1476 1477 1477 1478 1479 1480 1481
1435 1433 1431 1429 1427 1428 1429 1430 1433 1436 1440 1443 1448 1452 1456 1459 1462 1464 1466 1467 1467 1468 1469 1471 1472 1473 1474 1474 1475 1475 1475 1476 1476 1476 1477 1477 1478 1479
1433 1431 1429 1427 1425 1425 1426 1428 1430 1433 1437 1442 1447 1452 1456 1459 1463 1466 1467 1469 1470 1470 1471 1472 1474 1474 1475 1475 1475 1475 1475 1475 1475 1475 1475 1475 1476 1476
1433 1431 1429 1426 1425 1425 1425 1427 1430 1433 1437 1442 1447 1452 1456 1460 1464 1466 1469 1471 1473 1474 1474 1475 1475 1476 1476 1476 1476 1475 1475 1475 1474 1474 1474 1474 1474 1474
1433 1432 1431 1429 1427 1427 1428 1429 1432 1435 1440 1445 1449 1453 1457 1461 1465 1468 1470 1472 1474 1476 1477 1478 1478 1479 1478 1477 1477 1476 1476 1475 1475 1475 1474 1473 1473 1472
1435 1434 1433 1432 1431 1431 1432 1434 1437 1441 1445 1448 1452 1455 1459 1462 1465 1468 1470 1473 1475 1477 1478 1479 1480 1480 1479 1478 1478 1478 1477 1477 1476 1476 1475 1473 1472 1471
1435 1435 1435 1434 1435 1436 1437 1440 1443 1446 1450 1452 1454 1457 1460 1463 1466 1468 1470 1472 1474 1476 1478 1479 1480 1480 1480 1479 1479 1479 1478 1477 1477 1476 1474 1473 1471 1469
1436 1436 1436 1437 1438 1440 1442 1444 1447 1450 1453 1455 1457 1460 1462 1463 1466 1468 1469 1471 1473 1476 1478 1479 1480 1481 1481 1480 1480 1479 1479 1478 1476 1475 1474 1471 1469 1467
1436 1437 1438 1439 1441 1443 1445 1447 1449 1452 1454 1457 1459 1461 1462 1464 1467 1469 1471 1472 1474 1476 1477 1479 1480 1481 1481 1481 1480 1480 1479 1478 1476 1474 1472 1470 1467 1465
1435 1436 1438 1440 1442 1444 1447 1448 1450 1453 1455 1458 1460 1462 1464 1465 1466 1468 1471 1472 1473 1475 1476 1478 1479 1480 1481 1482 1482 1481 1480 1478 1475 1473 1470 1468 1465 1463
1433 1436 1437 1439 1442 1444 1447 1449 1451 1453 1456 1459 1461 1463 1464 1466 1467 1468 1469 1470 1472 1474 1476 1477 1478 1479 1480 1481 1481 1481 1480 1479 1477 1473 1470 1466 1463 1460
1431 1434 1435 1438 1441 1444 1447 1449 1452 1455 1458 1460 1462 1464 1465 1466 1467 1467 1468 1468 1470 1472 1474 1475 1477 1477 1479 1480 1481 1481 1479 1478 1476 1473 1471 1467 1463 1459
1429 1431 1434 1438 1441 1444 1447 1450 1453 1456 1458 1460 1462 1464 1465 1466 1467 1468 1469 1470 1471 1473 1473 1474 1477 1478 1479 1479 1480 1480 1479 1477 1475 1472 1469 1467 1463 1460
1427 1430 1434 1437 1441 1443 1447 1450 1453 1455 1457 1459 1461 1463 1465 1467 1469 1470 1472 1473 1474 1474 1473 1474 1475 1477 1479 1479 1479 1479 1478 1477 1475 1472 1468 1465 1462 1458
1425 1429 1433 1437 1440 1444 1447 1450 1452 1454 1456 1459 1461 1463 1465 1468 1470 1471 1472 1473 1474 1475 1475 1475 1476 1476 1476 1478 1479 1479 1478 1477 1474 1471 1467 1464 1461 1457
1424 1429 1432 1436 1440 1443 1446 1449 1451 1454 1456 1459 1461 1463 1466 1468 1470 1472 1473 1474 1474 1475 1476 1476 1477 1477 1478 1477 1478 1478 1477 1476 1473 1470 1467 1463 1460 1456
1423 1428 1431 1435 1439 1442 1445 1448 1451 1453 1456 1459 1461 1463 1466 1468 1470 1471 1473 1474 1475 1475 1475 1476 1476 1477 1476 1476 1476 1476 1476 1475 1472 1470 1466 1462 1458 1454
1421 1425 1429 1433 1438 1441 1445 1447 1450 1453 1456 1459 1461 1463 1466 1468 1470 1471 1472 1474 1475 1475 1476 1476 1476 1476 1477 1477 1477 1476 1473 1473 1471 1468 1465 1461 1457 1453
1419 1423 1428 1432 1436 1440 1444 1447 1449 1452 1455 1458 1461 1463 1465 1467 1469 1471 1471 1472 1474 1475 1475 1476 1475 1474 1475 1476 1476 1475 1473 1470 1468 1465 1462 1459 1455 1451
1416 1421 1425 1430 1434 1438 1442 1446 1449 1452 1455 1458 1460 1463 1465 1467 1468 1470 1471 1472 1473 1474 1475 1475 1474 1475 1476 1475 1474 1473 1471 1469 1465 1462 1459 1457 1455 1449
1414 1418 1423 1428 1432 1436 1440 1444 1448 1451 1454 1457 1459 1462 1464 1466 1467 1469 1470 1471 1472 1473 1474 1475 1475 1475 1475 1474 1473 1471 1469 1467 1465 1462 1459 1454 1452 1448